Westhampton Beach, NY

4:49 AM EDT on May 28, 2018 (GMT -0400)
The Gabreski

Weather History for KFOK - April, 2014

Change the Weather History Date:

Wednesday, April 2, 2014

  Actual Average Record
Temperature  
Mean Temperature 38 °F -  
Max Temperature 50 °F 49 °F 64 °F (2006)
Min Temperature 28 °F 32 °F 17 °F (2015)
Degree Days  
Heating Degree Days 27    
Moisture  
Dew Point 31 °F    
Average Humidity 73    
Maximum Humidity 89    
Minimum Humidity 48    
Precipitation  
Precipitation 0.00 in - - ()
Sea Level Pressure  
Sea Level Pressure 30.12 in    
Wind  
Wind Speed 4 mph (South)    
Max Wind Speed 8 mph    
Max Gust Speed -    
Visibility 10 miles    
Events      
Averages and records for this station are not official NWS values.
T = Trace of Precipitation, MM = Missing Value Source: NWS Daily Summary

Daily Weather History Graph

Daily Weather History Graph

Search for Another Location

Airport or City:

Astronomy

Apr. 02, 2014 Rise Set
Actual Time 6:32 AM EDT 7:16 PM EDT
Civil Twilight 6:04 AM EDT 7:44 PM EDT
Nautical Twilight 5:31 AM EDT 8:17 PM EDT
Astronomical Twilight 4:58 AM EDT 8:51 PM EDT
Moon 8:13 AM EDT (4/2) 10:38 PM EDT (4/2)
Length of Visible Light 13h 39m
Length of Day
12h 44m
Waxing Crescent, 10% of the Moon is Illuminated
Apr 2
Waxing Crescent
Apr 7
First Quarter
Apr 15
Full
Apr 22
Last Quarter
Apr 29
New

Hourly Weather History & Observations

Time (EDT) Temp. Windchill Dew Point Humidity Pressure Visibility Wind Dir Wind Speed Gust Speed Precip Events Conditions
12:53 AM 39.0 °F 34.8 °F 34.0 °F 82% 30.14 in 10.0 mi SSE 5.8 mph - N/A   Clear
1:53 AM 39.0 °F 35.7 °F 33.1 °F 79% 30.13 in 10.0 mi SSE 4.6 mph - N/A   Clear
2:53 AM 36.0 °F 32.1 °F 32.0 °F 86% 30.11 in 10.0 mi SSE 4.6 mph - N/A   Clear
3:53 AM 34.0 °F - 30.9 °F 89% 30.11 in 10.0 mi Calm Calm - N/A   Clear
4:53 AM 28.9 °F - 25.0 °F 85% 30.11 in 10.0 mi Calm Calm - N/A   Clear
5:53 AM 28.9 °F - 25.0 °F 85% 30.13 in 10.0 mi Calm Calm - N/A   Clear
6:53 AM 30.0 °F - 26.1 °F 85% 30.13 in 10.0 mi Calm Calm - N/A   Clear
8:53 AM 43.0 °F - 39.0 °F 86% 30.15 in 10.0 mi Calm Calm - N/A   Clear
9:53 AM 46.9 °F - 32.0 °F 56% 30.17 in 10.0 mi South 6.9 mph - N/A   Partly Cloudy
10:53 AM 48.0 °F - 28.9 °F 48% 30.17 in 10.0 mi SSW 8.1 mph - N/A   Clear
11:53 AM 46.9 °F - 30.0 °F 52% 30.15 in 10.0 mi SSW 6.9 mph - N/A   Mostly Cloudy
12:53 PM 46.0 °F 44.8 °F 33.1 °F 61% 30.14 in 10.0 mi Variable 3.5 mph - N/A   Overcast
1:53 PM 48.0 °F - 33.1 °F 56% 30.12 in 10.0 mi South 8.1 mph - N/A   Overcast
2:53 PM 48.0 °F - 34.0 °F 58% 30.11 in 10.0 mi SW 5.8 mph - N/A   Overcast
3:53 PM 46.0 °F 43.9 °F 35.1 °F 66% 30.10 in 10.0 mi SSW 4.6 mph - N/A   Overcast
4:53 PM 48.9 °F - 37.0 °F 64% 30.09 in 10.0 mi SW 8.1 mph - N/A   Overcast
6:53 PM 46.0 °F 44.8 °F 36.0 °F 68% 30.09 in 10.0 mi SW 3.5 mph - N/A   Clear
7:53 PM 39.9 °F - 32.0 °F 73% 30.10 in 10.0 mi Calm Calm - N/A   Clear
8:53 PM 34.0 °F - 28.9 °F 82% 30.11 in 10.0 mi Calm Calm - N/A   Clear
9:53 PM 30.9 °F - 26.1 °F 82% 30.11 in 10.0 mi Calm Calm - N/A   Clear
10:53 PM 28.9 °F 25.2 °F 24.1 °F 82% 30.10 in 10.0 mi NE 3.5 mph - N/A   Clear
11:53 PM 28.0 °F - 24.1 °F 85% 30.11 in 10.0 mi Calm Calm - N/A   Partly Cloudy